Terminal Aerodrome Forecast
Issued by NWS

Current Version | Previous Version | Text Only | Print | Product List | Glossary Off
Versions: 1 2 3 4 5 6 7 8 9 10 11 12 13 14 15 16 17 18 19

453
FTUS41 KILN 251959 AAA
TAFLUK
TAF AMD
KLUK 251959Z 2520/2618 27014G24KT P6SM OVC040
     FM252300 27010KT P6SM BKN050
     FM260300 28008KT P6SM SCT050
     FM260600 27006KT P6SM SCT250
     FM261600 21007KT P6SM SCT150=

USA.gov is the U.S. government's official web portal to all federal, state and local government web resources and services.